Terminal Aerodrome Forecast
Issued by NWS Omaha/Valley, NE

Home | Current Version | Previous Version | Text Only | Print | Product List | Glossary On
Versions: 1 2 3 4 5 6 7 8 9 10 11 12 13 14 15 16 17 18 19 20 21 22 23 24 25 26 27 28 29 30 31 32 33 34 35 36 37 38 39 40
000
FTUS43 KOAX 270651 AAA
TAFOMA
TAF AMD
KOMA 270651Z 2707/2806 35010KT P6SM SCT015 BKN070
     FM271300 36008KT P6SM SCT030 BKN070
      TEMPO 2713/2716 BKN030
     FM271700 09006KT P6SM SCT070 BKN120
     FM280000 13011KT P6SM BKN100=

USA.gov is the U.S. government's official web portal to all federal, state and local government web resources and services.